Tracking 29892 objects as of 21-Nov-2024
HD Live streaming from Space Station
objects crossing your sky now

STARLINK-30444

Track STARLINK-30444 now!
10-day predictions
STARLINK-30444 is classified as:


NORAD ID: 57871
Int'l Code: 2023-144H
Perigee: 565.5 km
Apogee: 566.9 km
Inclination: 43.0 °
Period: 95.8 minutes
Semi major axis: 6937 km
RCS: Unknown
Launch date: September 16, 2023
Source: United States (US)
Launch site: AIR FORCE EASTERN TEST RANGE (AFETR)
Your satellite tracking list
Your tracking list is empty




NASA's NSSDC Master Catalog

Two Line Element Set (TLE):
1 57871U 23144H   24325.53632624  .00003005  00000-0  23738-3 0  9993
2 57871  43.0044 344.0703 0001026 258.9848 101.0879 15.02545934 66016
Source of the keplerian elements: AFSPC